Location: *
(45.8589°N, 4.7139°E)
Time: 22:08:31
(UTC+00:00)

Cosmos 1763 Rocket - Pass Details

Date: 09 April 2020
Orbit: 734 x 779 km, 74.0° (Epoch: 23 May)

Event Time Altitude Azimuth Distance (km) Brightness Sun altitude
Rises 19:42:10 0° 345° (NNW) 3,229 7.4 -14.1°
Reaches altitude 10° 19:44:50 10° 356° (N) 2,291 6.4 -14.5°
Maximum altitude 19:49:24 31° 58° (ENE) 1,310 4.5 -15.2°
Enters shadow 19:51:30 23° 97° (E) 1,560 4.6 -15.6°
